Location: Unspecified
(43.0000°N, 0.0000°E)
Time: 12:55:45
(UTC+00:00)

PicSat - Pass Details

Date: 19 August 2020
Orbit: 482 x 496 km, 97.4° (Epoch: 21 September)

Event Time Altitude Azimuth Distance (km) Brightness Sun altitude
Exits shadow 21:29:04 28° 27° (NNE) 963 ? -24.3°
Drops below altitude 10° 21:31:11 10° 3° (N) 1,701 ? -24.6°
Sets 21:33:21 0° 356° (N) 2,587 ? -24.8°
